Westerly, RI

4:22 PM EDT on April 26, 2018 (GMT -0400)
Westerly State

Weather History for KWST - November, 2013

Change the Weather History Date:

Friday, November 8, 2013

  Actual Average (KGON) Record (KGON)
Temperature  
Mean Temperature 42 °F -  
Max Temperature 50 °F 53 °F 68 °F (2011)
Min Temperature 33 °F 36 °F 19 °F (1960)
Degree Days  
Heating Degree Days 24    
Moisture  
Dew Point 28 °F    
Average Humidity 61    
Maximum Humidity 92    
Minimum Humidity 39    
Precipitation  
Precipitation 0.00 in - - ()
Sea Level Pressure  
Sea Level Pressure 29.99 in    
Wind  
Wind Speed 5 mph (WNW)    
Max Wind Speed 13 mph    
Max Gust Speed 21 mph    
Visibility 10 miles    
Events      
Averages and records for this station are not official NWS values.
T = Trace of Precipitation, MM = Missing Value Source: NWS Daily Summary

Daily Weather History Graph

Daily Weather History Graph

Search for Another Location

Airport or City:

Astronomy

Nov. 08, 2013 Rise Set
Actual Time 6:27 AM EST 4:34 PM EST
Civil Twilight 5:58 AM EST 5:03 PM EST
Nautical Twilight 5:25 AM EST 5:36 PM EST
Astronomical Twilight 4:52 AM EST 6:08 PM EST
Moon 11:20 AM EST (11/8) 9:51 PM EST (11/8)
Length of Visible Light 11h 05m
Length of Day
10h 06m
Waxing Crescent, 33% of the Moon is Illuminated
Nov 8
Waxing Crescent
Nov 10
First Quarter
Nov 17
Full
Nov 25
Last Quarter
Dec 2
New

Hourly Weather History & Observations

Time (EST) Temp. Windchill Dew Point Humidity Pressure Visibility Wind Dir Wind Speed Gust Speed Precip Events Conditions
12:53 AM 39.0 °F 36.8 °F 33.1 °F 79% 29.88 in 10.0 mi WNW 3.5 mph - N/A   Scattered Clouds
1:53 AM 37.9 °F 35.5 °F 33.1 °F 83% 29.89 in 10.0 mi WSW 3.5 mph - N/A   Clear
2:53 AM 37.0 °F 33.3 °F 32.0 °F 82% 29.90 in 10.0 mi West 4.6 mph - N/A   Clear
3:53 AM 36.0 °F 33.3 °F 30.9 °F 82% 29.92 in 10.0 mi West 3.5 mph - N/A   Clear
4:53 AM 34.0 °F - 30.9 °F 89% 29.93 in 10.0 mi Calm Calm - N/A   Clear
5:53 AM 33.1 °F 30.0 °F 30.9 °F 92% 29.95 in 10.0 mi WNW 3.5 mph - N/A   Mostly Cloudy
6:53 AM 37.0 °F 34.5 °F 33.1 °F 86% 29.96 in 10.0 mi NNW 3.5 mph - N/A   Overcast
7:53 AM 39.0 °F 36.8 °F 32.0 °F 76% 29.98 in 10.0 mi West 3.5 mph - N/A   Overcast
8:53 AM 42.1 °F 40.2 °F 32.0 °F 67% 29.98 in 10.0 mi Variable 3.5 mph - N/A   Overcast
9:53 AM 45.0 °F 41.2 °F 28.9 °F 53% 29.97 in 10.0 mi Variable 6.9 mph 19.6 mph N/A   Overcast
10:53 AM 48.0 °F - 28.9 °F 48% 29.96 in 10.0 mi Variable 6.9 mph - N/A   Clear
11:53 AM 48.9 °F - 28.0 °F 44% 29.94 in 10.0 mi West 9.2 mph 19.6 mph N/A   Partly Cloudy
12:53 PM 50.0 °F - 28.0 °F 43% 29.93 in 10.0 mi WNW 10.4 mph 18.4 mph N/A   Overcast
1:53 PM 50.0 °F - 26.1 °F 39% 29.94 in 10.0 mi West 10.4 mph - N/A   Mostly Cloudy
2:53 PM 48.0 °F - 25.0 °F 41% 29.96 in 10.0 mi WNW 10.4 mph 18.4 mph N/A   Partly Cloudy
3:53 PM 46.9 °F - 25.0 °F 42% 29.98 in 10.0 mi West 8.1 mph 16.1 mph N/A   Partly Cloudy
4:53 PM 45.0 °F 40.1 °F 24.1 °F 44% 30.01 in 10.0 mi WNW 9.2 mph 18.4 mph N/A   Mostly Cloudy
5:53 PM 43.0 °F 38.2 °F 21.9 °F 43% 30.05 in 10.0 mi WNW 8.1 mph - N/A   Partly Cloudy
6:53 PM 42.1 °F 35.2 °F 21.9 °F 45% 30.08 in 10.0 mi WNW 12.7 mph 20.7 mph N/A   Clear
7:53 PM 39.9 °F 35.8 °F 23.0 °F 51% 30.10 in 10.0 mi Variable 5.8 mph - N/A   Partly Cloudy
8:53 PM 39.9 °F 35.8 °F 24.1 °F 53% 30.12 in 10.0 mi Variable 5.8 mph 16.1 mph N/A   Clear
9:53 PM 37.9 °F 34.4 °F 24.1 °F 57% 30.14 in 10.0 mi Variable 4.6 mph - N/A   Clear
10:53 PM 37.0 °F 34.5 °F 25.0 °F 62% 30.14 in 10.0 mi West 3.5 mph - N/A   Clear
11:53 PM 36.0 °F - 25.0 °F 64% 30.16 in 10.0 mi Calm Calm - N/A   Clear